{"data":{"norad_id":59336,"intl_designator":"2024-057S","name":"STARLINK-31596","alt_names":[],"object_type":"PAYLOAD","status":"ACTIVE","operator":null,"country":"US","launch_date":"2024-03-25","launch_site_code":"AFETR","launch_vehicle":null,"mission":null,"orbit_class":"UNKNOWN","rcs_meters":null,"size_class":null,"mass_kg":null,"dimensions":null,"purposes":["comms"],"wikipedia_slug":null,"has_3d_model":false,"image_url":null,"decayed_at":null,"tle_current":{"epoch":"2026-09-21T03:18:28.798848Z","epoch_age_seconds":107173,"freshness":"FRESH","line1":"1 59336U 24057S   26264.13783332  .00000787  00000+0  38128-4 0  9991","line2":"2 59336  43.0011 162.9970 0001180 271.5912  88.4805 15.27582428139738","mean_motion":15.27582428,"eccentricity":0.000118,"inclination_deg":43.0011,"raan_deg":162.997,"arg_perigee_deg":271.5912,"mean_anomaly_deg":88.4805,"bstar":3.8128e-5,"rev_number":13973,"period_min":94.266598882348,"perigee_km":482.23220664238,"apogee_km":483.85144484525,"semimajor_km":6861.1788257438,"source":"CELESTRAK","updated_at":"2026-09-22T09:00:48.901163Z"}}}